RH
15 16 17 17 18 16 17 17 18 19 15 14 13 15 27 32 37 49 41 39 39 27 24 23 24 23 24 25 27 30 29 27 30 33 31 29 25 24 22 21 19 18 19 19 20 21 20 20 20
17 19 19 20 21 24 27 23 22 19 17 15 14 17 26 35 40 46 41 36 38 28 25 24 23 24 25 25 26 30 30 29 28 31 35 32 28 26 23 20 19 19 19 19 20 20 20 20 21
18 21 21 21 22 29 27 25 23 20 18 17 16 22 26 31 38 52 41 39 47 37 27 25 27 27 27 25 26 29 32 31 29 29 32 34 31 28 24 22 21 20 20 20 20 21 20 21 22
24 24 22 23 22 23 25 28 25 21 20 19 23 42 36 33 34 48 42 40 45 34 27 25 26 25 29 28 27 29 32 33 31 29 31 31 34 31 28 24 26 21 21 21 21 22 22 22 23
28 28 29 27 23 23 26 28 26 24 22 14 27 48 40 47 37 37 31 34 31 28 27 27 27 28 29 28 27 28 31 34 33 32 31 32 34 34 30 28 29 24 22 22 22 24 25 24 24
29 31 34 32 25 27 32 26 23 22 22 21 31 44 63 80 54 43 34 29 30 29 27 26 26 26 28 28 29 29 29 33 34 35 35 35 34 35 34 31 28 27 26 25 25 25 25 26 27
32 35 36 34 32 31 32 28 25 24 20 21 33 54 66 85 74 57 36 32 32 30 28 25 26 26 28 28 28 28 30 33 35 36 40 38 36 38 37 35 31 30 30 28 27 27 26 26 28
31 36 36 35 36 34 38 33 28 25 20 28 36 46 53 50 57 53 44 33 33 32 32 27 25 25 25 27 27 28 31 34 35 36 40 41 41 43 42 39 34 32 34 32 28 27 26 26 26
33 36 38 36 36 38 35 34 31 28 26 28 36 40 38 39 53 56 45 40 34 34 31 28 25 24 24 25 26 28 31 33 36 39 42 45 47 45 45 45 39 34 34 35 30 29 27 26 26
34 36 36 38 40 39 39 35 31 27 29 28 38 38 40 48 50 55 47 36 33 28 30 26 25 25 24 24 26 28 31 35 39 43 46 47 49 48 46 46 47 41 35 35 33 30 29 27 25
36 33 35 40 41 41 42 37 33 30 30 28 31 35 38 38 39 41 42 34 25 25 27 29 27 26 24 25 27 30 32 35 39 43 47 49 48 48 48 49 51 51 44 38 35 33 30 29 27
37 34 36 39 42 39 38 35 32 30 29 27 32 37 40 38 37 39 35 31 33 35 31 27 30 30 26 26 27 28 31 35 38 41 43 47 50 51 52 50 51 49 53 50 38 35 32 30 30
37 36 37 36 40 40 38 34 34 30 32 29 32 41 41 39 37 36 35 39 39 39 40 36 34 31 34 30 34 36 37 36 35 39 45 46 48 49 52 56 57 58 59 61 54 43 35 32 33
37 37 35 36 35 36 35 32 32 29 29 28 32 34 38 34 34 34 34 35 42 40 44 44 43 40 36 35 37 40 41 40 39 39 40 43 49 52 52 55 56 60 61 58 59 60 53 39 36
35 39 36 34 34 34 34 32 27 24 26 27 28 29 28 30 30 30 31 36 46 46 46 42 45 45 40 40 44 44 42 42 42 43 41 42 44 48 51 53 54 56 59 60 59 58 59 57 52
37 40 41 32 36 34 34 31 25 26 29 28 29 26 27 27 29 27 29 36 42 48 51 46 45 43 43 41 45 46 46 47 48 48 47 47 47 47 48 50 52 56 60 61 59 57 59 60 58
37 43 44 38 35 34 36 32 26 29 30 30 29 30 30 27 26 27 31 35 39 44 46 47 49 49 48 43 45 46 49 52 53 52 52 51 53 54 52 51 53 57 58 61 64 64 62 62 63
40 46 42 42 37 39 35 35 29 31 29 28 29 31 30 30 28 27 30 34 37 42 52 51 55 53 51 51 49 47 48 49 51 52 51 52 55 56 56 55 56 59 61 62 62 63 61 61 62
39 44 44 42 40 48 47 39 34 33 32 31 30 29 28 29 27 27 29 31 33 37 44 46 44 53 54 51 47 47 49 51 50 49 50 52 53 55 56 56 60 62 62 66 68 68 65 64 66
40 43 43 41 39 45 47 45 41 36 35 32 32 31 31 32 28 28 31 30 32 37 39 41 45 48 50 50 50 48 51 50 51 50 50 52 55 57 59 61 64 67 69 70 71 71 72 67 71
40 40 40 46 39 42 50 48 44 37 39 39 32 33 33 30 29 29 31 31 32 35 40 41 43 47 47 50 48 47 46 47 47 46 46 46 48 50 53 58 62 66 71 73 73 73 77 78 76
39 34 39 47 51 47 43 51 47 44 38 37 37 35 36 35 34 31 32 35 36 36 38 42 44 45 46 49 46 47 49 49 45 46 46 45 42 39 41 43 43 46 53 55 55 59 69 73 74
36 35 46 50 52 55 46 53 43 43 43 38 37 39 41 39 35 34 35 38 38 38 39 39 41 46 50 52 51 48 45 44 43 41 39 40 39 38 39 41 42 43 45 49 52 52 53 53 64
45 50 52 56 55 60 54 56 42 42 41 42 41 44 45 44 43 40 39 38 41 42 41 40 38 43 42 46 42 35 33 33 32 31 30 31 33 37 41 42 41 41 45 49 49 47 48 54 53
50 62 76 83 70 64 54 57 43 41 40 42 48 51 51 49 46 44 43 44 46 44 41 39 39 37 36 35 34 35 35 35 35 35 37 38 38 38 41 43 43 43 44 43 42 40 44 45 47
49 58 67 84 77 61 55 53 48 44 42 42 44 52 54 54 50 49 51 50 50 46 42 42 41 41 41 40 39 38 38 38 38 38 38 38 38 36 34 31 34 36 38 38 33 29 30 32 34
50 57 56 66 58 67 58 54 51 44 45 49 47 53 55 54 53 55 55 52 51 48 46 45 44 45 45 44 43 42 42 41 39 38 37 37 35 35 33 32 29 25 23 23 25 27 30 32 32
53 55 62 79 91 83 63 59 57 52 56 51 56 55 57 58 58 59 59 55 51 50 49 48 46 46 46 45 44 44 43 43 42 41 39 37 36 33 29 25 26 25 23 22 22 24 26 28 28
62 64 66 70 83 83 75 61 50 48 51 52 58 62 63 62 61 61 58 56 52 49 49 49 48 48 47 47 47 48 48 47 46 44 39 35 29 28 27 26 25 20 20 21 23 25 27 27 27
62 61 65 79 81 82 83 70 55 53 51 53 56 57 57 60 61 60 58 56 54 54 52 50 50 50 50 50 50 49 49 49 46 41 35 31 33 33 31 30 26 25 24 25 26 27 29 30 30